Regional Weather Roundup
Issued by NWS

Home | Current Version | Previous Version | Text Only | Print | Product List | Glossary Off
Versions: 1 2 3 4 5 6 7 8 9 10 11 12 13 14 15 16 17 18 19 20 21 22 23 24 25 26 27 28 29 30 31 32 33 34 35 36 37 38 39 40 41 42 43 44 45 46 47 48 49 50

000
ASUS43 KDTX 271710
RWRMI
MICHIGAN HOURLY REGIONAL WEATHER ROUNDUP
NATIONAL WEATHER SERVICE DETROIT/PONTIAC MI
100 PM EDT MON APR 27 2015

NOTE: "FAIR" INDICATES FEW OR NO CLOUDS BELOW 12,000 FEET WITH NO
SIGNIFICANT WEATHER AND/OR OBSTRUCTION TO VISIBILITY.

MIZ047>049-052>055-059>063-066>070-074>076-081>083-271800-
SOUTHEAST LOWER MICHIGAN

CITY           SKY/WX    TMP DP  RH WIND       PRES   REMARKS
ADRIAN         CLOUDY    47  36  65 N9        30.03F
ALMA           CLOUDY    48  33  56 NW5       30.06R
ANN ARBOR      CLOUDY    46  34  62 N9        30.03R
BAD AXE        CLOUDY    44  35  71 N16       30.04R
DETROIT CITY   CLOUDY    45  34  65 N15       30.03R
DETROIT        CLOUDY    48  33  56 N12       30.03R
FLINT          CLOUDY    48  35  60 N13       30.05R
HILLSDALE      CLOUDY    46  35  64 N7        30.03R
HOWELL         CLOUDY    44  35  71 N9G17     30.04R

CITY           SKY/WX    TMP DP  RH WIND       PRES   REMARKS
JACKSON        CLOUDY    46  36  68 N7        30.04R
LAMBERTVILLE   CLOUDY    46  36  66 N5        30.03S
LANSING        CLOUDY    46  33  60 N8        30.07R
LAPEER         NOT AVBL
MASON          CLOUDY    43  35  71 N8        30.06R
MONROE         CLOUDY    46  36  66 CALM      30.01S
MT. CLEMENS    CLOUDY    46  36  68 N17       29.99R
PONTIAC        CLOUDY    45  35  68 N12       30.02R
PORT HOPE        N/A     42  35  76 N10       30.03R
PORT HURON     CLOUDY    45  36  70 N9        30.01S
TRI CITIES     CLOUDY    50  35  56 NE12      30.06R
YPSILANTI      CLOUDY    50  34  54 N12       30.03R
$$
MIZ043>046-050>051-056>058-064>065-071>073-077>080-271800-
SOUTHWEST LOWER MICHIGAN

CITY           SKY/WX    TMP DP  RH WIND       PRES   REMARKS
BATTLE CREEK   CLOUDY   N/A N/A N/A MISG      30.05S
BENTON HARBOR  SUNNY     44  37  76 NW10G18   30.10S
BIG RAPIDS     CLOUDY    49  34  56 N8        30.06R
COLDWATER      CLOUDY    47  35  62 NE8       30.04R
HOLLAND        CLOUDY    51  37  58 NW13      30.08R
GRAND RAPIDS   CLOUDY    49  33  54 NE8       30.06R
KALAMAZOO      CLOUDY    50  34  54 N6        30.06R
MARSHALL       CLOUDY    46  35  64 N5        30.04S
MUSKEGON       PTSUNNY   53  34  48 NW15      30.07S
$$
MIZ016>042-271800-
NORTHERN LOWER MICHIGAN

CITY           SKY/WX    TMP DP  RH WIND       PRES   REMARKS
ALPENA         PTSUNNY   51  33  50 N15       30.06S
BEAVER ISLAND  CLOUDY    47  34  59 NW9G16    30.11S
BELLAIRE       CLOUDY    49  33  54 N5        30.09S
CADILLAC       CLOUDY    48  34  57 N9G17     30.05S
CHARLEVOIX     MOSUNNY   44  35  70 NW9       30.14R
FRANKFORT      SUNNY     50  32  50 NE10G18   30.11S
GAYLORD        CLOUDY    47  32  56 VRB5      30.05S
GRAYLING       CLOUDY    48  32  52 N7G16     30.06S
HARBOR SPRINGS CLOUDY    49  34  56 CALM      30.08R
HOUGHTON LAKE  CLOUDY    48  32  53 N8G18     30.05S
MANISTEE       PTSUNNY   46  34  61 NW13G22   30.11R
OSCODA         PTSUNNY   52  37  56 NE13      30.03R
PELLSTON       CLOUDY    50  34  54 N10       30.09S
TRAVERSE CITY  PTSUNNY   47  34  60 NE16G23   30.09S
$$
MIZ007>008-015-271800-
EASTERN UPPER MICHIGAN

CITY           SKY/WX    TMP DP  RH WIND       PRES   REMARKS
KINROSS        CLOUDY    45  36  70 N13       30.09R
MACKINAC ISLAN CLOUDY    48  34  59 W5        30.08S
NEWBERRY       CLOUDY    46  35  67 NW14G26   30.11S
S. S. MARIE    CLOUDY    45  33  63 NW13      30.09R
$$
MIZ004>006-011>014-085-271800-
CENTRAL UPPER MICHIGAN

CITY           SKY/WX    TMP DP  RH WIND       PRES   REMARKS
MANISTIQUE     CLOUDY    49  34  56 N12G20    30.11F
ESCANABA       PTSUNNY   52  34  50 N15G21    30.12F
MENOMINEE      SUNNY     48  34  57 E15       30.13R
SAWYER-GWINN   SUNNY     45  32  61 NE17      30.14S
$$
MIZ001>003-009>011-084-271800-
WESTERN UPPER MICHIGAN

CITY           SKY/WX    TMP DP  RH WIND       PRES   REMARKS
IRON MOUNTAIN  MOSUNNY   58  30  34 N15G26    30.11F
HOUGHTON       SUNNY     51  32  48 N12G20    30.18F
COPPER HARBOR    N/A     39  31  72 N7        30.20S
IRONWOOD       SUNNY     52  28  40 N10       30.18F
$$

ABBREVIATIONS USED IN REMARKS
   TC - TEMPERATURE IN CELSIUS
  WCI - WIND CHILL INDEX
   HX - HEAT INDEX
  VSB - VISIBILITY




USA.gov is the U.S. government's official web portal to all federal, state and local government web resources and services.